Weather History for KSET - June, 2014

Change the Weather History Date:

Tuesday, June 10, 2014

  Actual Average (KSTL) Record (KSTL)
Temperature  
Mean Temperature 70 °F 75 °F  
Max Temperature 80 °F 84 °F 100 °F (1953)
Min Temperature 62 °F 65 °F 48 °F (1972)
Degree Days  
Heating Degree Days 0 0  
Month to date heating degree days 3  
Since 1 June heating degree days 3  
Since 1 July heating degree days 4533  
Cooling Degree Days 5 10  
Month to date cooling degree days 84  
Year to date cooling degree days 258  
Since 1 June cooling degree days 84  
Growing Degree Days 20 (Base 50)    
Moisture  
Dew Point 65 °F    
Average Humidity 91    
Maximum Humidity 100    
Minimum Humidity 71    
Precipitation  
Precipitation 0.00 in 0.15 in 2.68 in (2003)
Month to date precipitation 1.54  
Year to date precipitation 17.91  
Snow  
Snow 0.00 in 0.00 in 0.00 in (2014)
Month to date snowfall 0.0  
Since 1 June snowfall 0.0  
Since 1 July snowfall 17.7  
Snow Depth -    
Sea Level Pressure  
Sea Level Pressure 29.71 in    
Wind  
Wind Speed 12 mph (East)    
Max Wind Speed 17 mph    
Max Gust Speed 24 mph    
Visibility 6 miles    
Events Fog , Thunderstorm    
T = Trace of Precipitation, MM = Missing Value Source: NWS Daily Summary

Daily Weather History Graph

Daily Weather History Graph

Search for Another Location

Airport or City:

Trip Planner

Search our weather history database for the weather conditions in past years. The results will help you decide how hot, cold, wet, or windy it might be!

Date:

Astronomy

Jun. 10, 2014 Rise Set
Actual Time 5:35 AM CDT 8:26 PM CDT
Civil Twilight 5:04 AM CDT 8:58 PM CDT
Nautical Twilight 4:23 AM CDT 9:38 PM CDT
Astronomical Twilight 3:38 AM CDT 10:24 PM CDT
Moon 5:53 PM CDT (6/10) 3:40 AM CDT (6/10)
Length of Visible Light 15h 54m
Length of Day
14h 50m
Waxing Gibbous, 92% of the Moon is Illuminated
Jun 10
Waxing Gibbous
Jun 12
Full
Jun 19
Last Quarter
Jun 27
New
Jul 5
First Quarter

Hourly Weather History & Observations

Time (CDT) Temp. Dew Point Humidity Pressure Visibility Wind Dir Wind Speed Gust Speed Precip Events Conditions
12:08 AM 63.0 °F 62.1 °F 97% 29.76 in 4.0 mi ENE 16.1 mph 21.9 mph N/A   Overcast
12:45 AM 63.0 °F 62.1 °F 97% 29.75 in 4.0 mi ENE 17.3 mph 24.2 mph N/A   Overcast
12:52 AM 62.6 °F 62.6 °F 100% 29.75 in 4.0 mi ENE 16.1 mph - N/A   Overcast
12:54 AM 63.0 °F 62.1 °F 97% 29.73 in 4.0 mi East 16.1 mph - N/A   Overcast
1:00 AM 63.0 °F 62.1 °F 97% 29.74 in 2.5 mi ENE 17.3 mph - N/A   Overcast
1:09 AM 63.0 °F 62.1 °F 97% 29.74 in 2.5 mi ENE 17.3 mph - N/A   Overcast
1:18 AM 63.0 °F 62.1 °F 97% 29.73 in 4.0 mi ENE 15.0 mph - N/A   Overcast
1:37 AM 63.0 °F 62.1 °F 97% 29.73 in 2.5 mi East 13.8 mph - N/A   Overcast
1:44 AM 63.0 °F 62.1 °F 97% 29.73 in 3.0 mi East 12.7 mph - N/A   Overcast
1:54 AM 63.0 °F 62.1 °F 97% 29.71 in 2.0 mi East 12.7 mph - N/A   Overcast
2:01 AM 63.0 °F 62.1 °F 97% 29.72 in 3.0 mi ENE 10.4 mph - N/A   Overcast
2:50 AM 64.4 °F 62.6 °F 94% 29.71 in 2.5 mi East 10.4 mph - N/A   Overcast
2:54 AM 64.0 °F 63.0 °F 96% 29.69 in 4.0 mi East 11.5 mph - N/A   Overcast
3:37 AM 64.9 °F 63.0 °F 93% 29.71 in 8.0 mi East 12.7 mph - N/A   Overcast
3:54 AM 64.9 °F 64.0 °F 97% 29.70 in 7.0 mi East 11.5 mph - N/A   Overcast
4:06 AM 64.9 °F 64.0 °F 97% 29.71 in 6.0 mi ESE 10.4 mph - N/A   Overcast
4:25 AM 64.9 °F 64.0 °F 97% 29.70 in 4.0 mi ESE 8.1 mph - N/A   Overcast
4:54 AM 66.0 °F 64.9 °F 96% 29.69 in 4.0 mi ESE 6.9 mph - N/A   Overcast
5:23 AM 66.0 °F 64.9 °F 96% 29.71 in 4.0 mi ESE 6.9 mph - N/A   Overcast
5:54 AM 66.9 °F 66.0 °F 97% 29.71 in 4.0 mi ESE 6.9 mph - N/A   Overcast
6:46 AM 68.0 °F 66.0 °F 93% 29.72 in 7.0 mi SE 5.8 mph - N/A   Overcast
6:54 AM 68.0 °F 66.9 °F 96% 29.71 in 6.0 mi ESE 5.8 mph - N/A   Overcast
7:07 AM 68.0 °F 66.9 °F 96% 29.73 in 6.0 mi SE 6.9 mph - N/A   Overcast
7:26 AM 69.1 °F 66.9 °F 93% 29.72 in 7.0 mi ESE 6.9 mph - N/A   Overcast
7:54 AM 70.0 °F 66.9 °F 90% 29.72 in 10.0 mi SE 9.2 mph - N/A   Mostly Cloudy
8:20 AM 70.0 °F 66.9 °F 90% 29.73 in 10.0 mi SSE 6.9 mph - N/A   Overcast
8:54 AM 70.0 °F 66.9 °F 90% 29.73 in 10.0 mi South 5.8 mph - N/A   Overcast
9:07 AM 71.1 °F 66.0 °F 84% 29.74 in 10.0 mi South 5.8 mph - N/A   Overcast
9:46 AM 71.1 °F 66.0 °F 84% 29.74 in 10.0 mi SSE 6.9 mph - N/A   Overcast
10:07 AM 72.0 °F 66.9 °F 84% 29.74 in 10.0 mi South 8.1 mph - N/A   Overcast
10:20 AM 72.0 °F 66.9 °F 84% 29.74 in 10.0 mi South 6.9 mph - N/A   Overcast
10:33 AM 73.9 °F 66.9 °F 79% 29.74 in 10.0 mi SSW 6.9 mph - N/A   Mostly Cloudy
11:31 AM 73.9 °F 66.9 °F 79% 29.73 in 10.0 mi SSW 3.5 mph - N/A   Overcast
12:49 PM 77.0 °F 69.8 °F 78% 29.72 in 10.0 mi ESE 8.1 mph - N/A   Mostly Cloudy
12:54 PM 78.1 °F 69.1 °F 74% 29.70 in 10.0 mi East 10.4 mph - N/A   Scattered Clouds
2:33 PM 78.1 °F 68.0 °F 71% 29.67 in 10.0 mi East 10.4 mph - N/A Thunderstorm Partly Cloudy
2:54 PM 78.1 °F 68.0 °F 71% 29.65 in 10.0 mi ENE 11.5 mph - N/A   Partly Cloudy
3:15 PM 75.9 °F 66.9 °F 74% 29.67 in 10.0 mi ENE 9.2 mph - N/A Thunderstorm Mostly Cloudy
3:24 PM 75.0 °F 66.9 °F 76% 29.66 in 10.0 mi ENE 15.0 mph 19.6 mph N/A   Mostly Cloudy
4:00 PM 69.1 °F 63.0 °F 81% 29.69 in 9.0 mi West 11.5 mph - N/A Thunderstorm Thunderstorm
4:08 PM 66.9 °F 64.0 °F 90% 29.70 in 2.5 mi West 9.2 mph - N/A Thunderstorm Overcast
4:15 PM 66.9 °F 64.9 °F 93% 29.70 in 2.0 mi NW 10.4 mph - N/A Thunderstorm Overcast
4:52 PM 66.2 °F 64.4 °F 94% 29.71 in 0.5 mi WNW 6.9 mph - N/A Fog , Thunderstorm Unknown
4:53 PM 66.0 °F 64.9 °F 96% 29.70 in 0.5 mi West 6.9 mph - N/A Fog , Thunderstorm Unknown
5:09 PM 64.9 °F 64.0 °F 97% 29.70 in 2.0 mi NNW 12.7 mph - N/A Thunderstorm Overcast
5:14 PM 64.9 °F 64.0 °F 97% 29.70 in 3.0 mi NNW 11.5 mph - N/A Thunderstorm Overcast
5:36 PM 64.9 °F 64.0 °F 97% 29.71 in 4.0 mi NW 5.8 mph - N/A Thunderstorm Overcast
5:54 PM 66.0 °F 64.0 °F 93% 29.69 in 6.0 mi NNW 9.2 mph - N/A   Overcast
6:01 PM 66.0 °F 64.0 °F 93% 29.70 in 5.0 mi NNW 10.4 mph - N/A Thunderstorm Overcast
6:16 PM 66.0 °F 64.0 °F 93% 29.69 in 6.0 mi North 9.2 mph - N/A   Overcast
6:54 PM 66.9 °F 64.0 °F 90% 29.70 in 5.0 mi Calm Calm - N/A   Overcast
7:54 PM 64.9 °F 63.0 °F 93% 29.69 in 10.0 mi NE 8.1 mph - N/A   Overcast
8:54 PM 64.9 °F 62.1 °F 90% 29.69 in 10.0 mi North 5.8 mph - N/A   Overcast
10:54 PM 64.0 °F 63.0 °F 96% 29.69 in 10.0 mi West 6.9 mph - N/A   Mostly Cloudy
11:54 PM 64.0 °F 63.0 °F 96% 29.69 in 10.0 mi WSW 4.6 mph - N/A   Clear